Regional Weather Roundup
Issued by NWS

Home | Current Version | Previous Version | Graphics & Text | Print | Product List | Glossary On
Versions: 1 2 3 4 5 6 7 8 9 10 11 12 13 14 15 16 17 18 19 20 21 22 23 24 25 26 27 28 29 30 31 32 33 34 35 36 37 38 39 40 41 42 43 44 45 46 47 48 49 50
000
ASUS43 KMKX 061000
RWRWI

WISCONSIN REGIONAL WEATHER ROUNDUP
NATIONAL WEATHER SERVICE MILWAUKEE/SULLIVAN WI
400 AM CST TUE DEC 06 2016

NOTE: "FAIR" INDICATES FEW OR NO CLOUDS BELOW 12,000 FEET WITH NO
SIGNIFICANT WEATHER AND/OR OBSTRUCTIONS TO VISIBILITY.

WIZ001-002-006>008-014>016-023>028-061100-
NORTHWEST WISCONSIN

CITY           SKY/WX    TMP DP  RH WIND       PRES   REMARKS
SUPERIOR ARPT  CLOUDY    37  32  81 SW21G30   29.60R WCI  27
ASHLAND        CLOUDY    36  31  82 MISG      29.66R
HAYWARD        LGT SNOW  34  31  88 S13       29.65F FOG     WCI  25
SIREN          CLOUDY    34  28  79 SW14G21   29.66R WCI  24
CUMBERLAND     MIX PCPN  32  32 100 S14       29.66F WCI  22
RICE LAKE      LGT SNOW  33  32  96 S10       29.70S WCI  25
CHETEK         LGT SNOW  32  32  99 S12       29.70S WCI  23
LADYSMITH      LGT SNOW  33  32  96 S9        29.72F WCI  25
EAU CLAIRE     LGT SNOW  32  32 100 S10       29.72F VSB 1   WCI  24
MENOMONIE      LGT RAIN  33  33 100 S13       29.71F WCI  24
NEW RICHMOND   CLOUDY    32  28  84 SW14G22   29.69S WCI  22
OSCEOLA        CLOUDY    33  28  80 SW12      29.72S WCI  24
$$

WIZ003>005-009-010-017-018-061100-
NORTH CENTRAL WISCONSIN

CITY           SKY/WX    TMP DP  RH WIND       PRES   REMARKS
MANITOWISH WTR CLOUDY    32  29  88 S15G21    29.68F WCI  22
ARBOR VITAE    CLOUDY    34  29  82 S10       29.70F WCI  26
WOODRUFF       CLOUDY    34  29  82 S10       29.70F WCI  26
RHINELANDER    PTCLDY    32  28  85 S9        29.73F WCI  24
EAGLE RIVER    CLOUDY    31  27  84 S8        29.72F WCI  24
LAND O LAKES   MOCLDY    32  29  86 SE9       29.73F WCI  24
PHILLIPS       CLOUDY    32  29  91 S12       29.70S WCI  23
TOMAHAWK       PTCLDY    30  27  90 S3        29.74F
MEDFORD        CLOUDY    30  28  94 S13       29.74S FOG     WCI  20
MERRILL        MOCLDY    30  29  94 S6        29.77R WCI  24
$$

WIZ029-030-035-036-043>047-061100-
CENTRAL WISCONSIN

CITY           SKY/WX    TMP DP  RH WIND       PRES   REMARKS
WAUSAU         CLOUDY    30  27  88 S8        29.76S WCI  22
MOSINEE        CLOUDY    30  30 100 S10       29.79S WCI  21
MARSHFIELD     CLOUDY    31  28  89 S9G21     29.76S FOG     WCI  23
STEVENS POINT  PTCLDY    28  28 100 S5        29.81S FOG     WCI  23
WAUPACA        CLOUDY    34  31  90 SE9       29.82F FOG     WCI  26
WAUTOMA        CLOUDY   N/A N/A N/A S6        29.83S HAZE
WISC RAPIDS    CLOUDY    31  30  96 S7        29.80S WCI  24
CAMP DOUGLAS   NOT AVBL
$$

WIZ011>013-019>022-031-037>040-048>050-061100-
NORTHEAST WISCONSIN

CITY           SKY/WX    TMP DP  RH WIND       PRES   REMARKS
ANTIGO         CLOUDY    29  29  99 SE14      29.77F FOG     WCI  19
SHAWANO        CLOUDY    36  33  90 S6        29.83F FOG     WCI  31
OCONTO         CLOUDY    38  35  87 SW6       29.86R WCI  34
STURGEON BAY   CLOUDY    38  35  89 SE12      29.84F WCI  30
GREEN BAY      CLOUDY    38  36  92 S9        29.84F WCI  31
MANITOWOC      NOT AVBL
APPLETON       CLOUDY    34  34 100 S7        29.82S WCI  28
CLINTONVILLE   CLOUDY    34  32  93 S8        29.82F FOG     WCI  27
OSHKOSH        CLOUDY    33  31  92 S6        29.83F FOG     WCI  28
$$

WIZ032>034-041-042-053>061-061100-
SOUTHWEST WISCONSIN

CITY           SKY/WX    TMP DP  RH WIND       PRES   REMARKS
LA CROSSE      CLOUDY    36  31  82 S8        29.79F WCI  30
SPARTA         CLOUDY    32  30  92 S7        29.80F WCI  26
VIROQUA        CLOUDY    31  30  98 S12       29.78F WCI  21
BOSCOBEL       CLOUDY    33  29  85 SW5       29.84F WCI  29
PRAIRIE DU CHI CLOUDY    32  29  86 SE5       29.82F WCI  28
PLATTEVILLE    CLOUDY    31  31 100 SE5       29.83S VSB 1/2 WCI  26
$$

WIZ056-057-062-063-064-067-068-061100-
SOUTH CENTRAL WISCONSIN

CITY           SKY/WX    TMP DP  RH WIND       PRES   REMARKS
REEDSBURG      CLOUDY    31  30  99 SW7       29.82F WCI  24
BARABOO/DELLS  CLOUDY    30  29  95 S12       29.81F FOG     WCI  21
LONE ROCK      NOT AVBL
MINERAL POINT  FOG       32  32 100 S3        29.81F VSB 1/4
MADISON        CLOUDY    31  30  96 S8        29.83F FOG     WCI  23
MIDDLETON      NOT AVBL
WATERTOWN      CLOUDY    31  31 100 SE3       29.85F FOG
MONROE         FOG       32  32 100 S7        29.82F VSB 1/2 WCI  26
JANESVILLE     CLOUDY    32  32 100 SE6       29.84F FOG     WCI  26
$$

WIZ051-052-058>065-066-070>072-061100-
SOUTHEAST WISCONSIN

CITY           SKY/WX    TMP DP  RH WIND       PRES   REMARKS
MILWAUKEE      CLOUDY    36  34  92 CALM      29.85F FOG
WAUKESHA       CLOUDY    32  32 100 CALM      29.86S FOG
MILWAUKEE/TIMM CLOUDY    34  32  93 CALM      29.86F FOG
RACINE         CLOUDY    39  34  82 S8        29.87F WCI  33
BURLINGTON     CLOUDY    33  32  96 CALM      29.84F FOG
KENOSHA        CLOUDY    37  33  85 E3        29.84F
FOND DU LAC    CLOUDY    34  30  85 S7        29.84F WCI  28
SHEBOYGAN      CLOUDY    38  34  85 SE6       29.85F WCI  33
WEST BEND      CLOUDY    32  32 100 S3        29.85F
JUNEAU         CLOUDY    30  29  94 SE10      29.85F FOG     WCI  21
$$

LSZ147-162-061100-
LAKE SUPERIOR

STATION/POSITION TIME  TEMP    WIND        PRES    WAVE
                       AIR SEA DIR/SP/G            HT/PER
                 (UTC) (F)     (DEG/KT/KT) (MB)    (FT/S)
DEVILS ISLAND    0900   39     170/ 13/ 18 1004.5F
PORT WING        0940   38     180/ 12/ 18 1003.7S
SAXON HARBOR     0930   38     170/  7/ 14 1004.4F
$$

LMZ867-665-643>646-061100-
LAKE MICHIGAN

STATION/POSITION TIME  TEMP    WIND        PRES    WAVE
                       AIR SEA DIR/SP/G            HT/PER
                 (UTC) (F)     (DEG/KT/KT) (MB)    (FT/S)
CHAMBERS ISLAND  0940   40     130/  7/ 13 1010.5F
NORTHPORT PIER   0940   42     150/ 13/ 17 1011.5F
SISTER BAY       0938   40     170/ 14/ 20   N/A
ALGOMA LAKESHORE 0921          200/ 20/ 25   N/A
KEWAUNEE LAKESHO 0930   40     170/ 19/ 21 1010.9F
SHEBOYGAN LAKESH 0900   39     160/ 16/ 18 1011.8F
PORT WASHINGTON  0930   38     190/  4/  6 1012.2F
MILWAUKEE LAKESH 0930   37     180/  3/  4   N/A
KENOSHA   LAKESH 0900   39     160/ 15/ 16 1011.2
$$

TC  - TEMPERATURE IN CELSIUS
VSB - VISIBILITY IN STATUTE MILES
WCI - WIND CHILL INDEX
HX  - HEAT INDEX




USA.gov is the U.S. government's official web portal to all federal, state and local government web resources and services.